Tracking 30009 objects as of 7-Dec-2024
HD Live streaming from Space Station
objects crossing your sky now

STARLINK-31063

Track STARLINK-31063 now!
10-day predictions
STARLINK-31063 is classified as:


NORAD ID: 58547
Int'l Code: 2023-192S
Perigee: 469.6 km
Apogee: 471.1 km
Inclination: 53.2 °
Period: 93.9 minutes
Semi major axis: 6841 km
RCS: Unknown
Launch date: December 8, 2023
Source: United States (US)
Launch site: AIR FORCE WESTERN TEST RANGE (AFWTR)
Your satellite tracking list
Your tracking list is empty




NASA's NSSDC Master Catalog

Two Line Element Set (TLE):
1 58547U 23192S   24342.12077734  .00002400  00000-0  82581-4 0  9996
2 58547  53.1606  23.5085 0001101  83.1325 276.9802 15.34222448 56976
Source of the keplerian elements: AFSPC